Weather History for Corpus Christi, TX

Change the Weather History Date:

Saturday, May 5, 2012

  Actual Average Record
Temperature  
Mean Temperature 84 °F 76 °F  
Max Temperature 91 °F 85 °F 96 °F (2003)
Min Temperature 76 °F 68 °F 50 °F (1970)
Degree Days  
Heating Degree Days 0 0  
Month to date heating degree days 0 0  
Since 1 July heating degree days 611 898  
Cooling Degree Days 19 11  
Month to date cooling degree days 87 55  
Year to date cooling degree days 865 483  
Growing Degree Days 33 (Base 50)    
Moisture  
Dew Point 73 °F    
Average Humidity 77    
Maximum Humidity 94    
Minimum Humidity 59    
Precipitation  
Precipitation 0.00 in 0.09 in 6.57 in (1926)
Month to date precipitation 0.00 0.42  
Year to date precipitation 8.47 7.62  
Snow  
Snow 0.00 in - - ()
Month to date snowfall 0.0  
Since 1 July snowfall 0.0  
Snow Depth 0.00 in    
Sea Level Pressure  
Sea Level Pressure 29.87 in    
Wind  
Wind Speed 16 mph (SSE)    
Max Wind Speed 26 mph    
Max Gust Speed 33 mph    
Visibility 10 miles    
Events      
T = Trace of Precipitation, MM = Missing Value Source: NWS Daily Summary

Daily Weather History Graph

Daily Weather History Graph

Search for Another Location

Airport:

Trip Planner

Search our weather history database for the weather conditions in past years. The results will help you decide how hot, cold, wet, or windy it might be!

Date:

Astronomy

May. 05, 2012 Rise Set
Actual Time 6:46 AM CDT 8:06 PM CDT
Civil Twilight 6:22 AM CDT 8:31 PM CDT
Nautical Twilight 5:52 AM CDT 9:01 PM CDT
Astronomical Twilight 5:21 AM CDT 9:32 PM CDT
Moon 7:58 PM CDT (5/5) 6:09 AM CDT (5/5)
Length of Visible Light 14h 09m
Length of Day
13h 19m
Full, 100% of the Moon is Illuminated
May 5
Full
May 5
Full
May 12
Last Quarter
May 20
New
May 28
First Quarter

Hourly Weather History & Observations

Time (CDT) Temp. Heat Index Dew Point Humidity Pressure Visibility Wind Dir Wind Speed Gust Speed Precip Events Conditions
12:13 AM 78.8 °F - 73.4 °F 83% 29.93 in 9.0 mi SSE 11.5 mph - N/A   Scattered Clouds
12:28 AM 78.8 °F - 73.4 °F 83% 29.94 in 9.0 mi SSE 6.9 mph - N/A   Mostly Cloudy
12:48 AM 78.8 °F - 73.4 °F 83% 29.94 in 9.0 mi SSE 8.1 mph - N/A   Scattered Clouds
12:51 AM 78.1 °F - 73.0 °F 84% 29.94 in 9.0 mi SE 6.9 mph - N/A   Partly Cloudy
1:51 AM 77.0 °F - 73.0 °F 88% 29.94 in 9.0 mi SE 8.1 mph - N/A   Partly Cloudy
2:51 AM 77.0 °F - 73.0 °F 88% 29.91 in 10.0 mi SSE 9.2 mph - N/A   Partly Cloudy
3:51 AM 75.9 °F - 73.0 °F 91% 29.90 in 10.0 mi SSE 5.8 mph - N/A   Scattered Clouds
4:00 AM 75.2 °F - 73.4 °F 94% 29.90 in 10.0 mi SE 6.9 mph - N/A   Mostly Cloudy
4:13 AM 75.2 °F - 73.4 °F 94% 29.89 in 10.0 mi SE 8.1 mph - N/A   Scattered Clouds
4:45 AM 75.2 °F - 73.4 °F 94% 29.89 in 10.0 mi SE 8.1 mph - N/A   Mostly Cloudy
4:51 AM 75.9 °F - 73.0 °F 91% 29.89 in 10.0 mi SE 8.1 mph - N/A   Mostly Cloudy
5:12 AM 75.2 °F - 73.4 °F 94% 29.89 in 10.0 mi SE 8.1 mph - N/A   Scattered Clouds
5:51 AM 75.9 °F - 73.0 °F 91% 29.88 in 10.0 mi SE 8.1 mph - N/A   Partly Cloudy
6:51 AM 75.9 °F - 73.0 °F 91% 29.89 in 10.0 mi SE 9.2 mph - N/A   Partly Cloudy
7:51 AM 77.0 °F - 73.0 °F 88% 29.89 in 10.0 mi SSE 12.7 mph - N/A   Partly Cloudy
8:51 AM 80.1 °F 84.2 °F 73.0 °F 79% 29.91 in 10.0 mi SSE 15.0 mph 19.6 mph N/A   Scattered Clouds
8:58 AM 80.6 °F 85.4 °F 73.4 °F 79% 29.90 in 10.0 mi SSE 16.1 mph - N/A   Mostly Cloudy
9:12 AM 80.6 °F 85.4 °F 73.4 °F 79% 29.90 in 10.0 mi SSE 15.0 mph - N/A   Scattered Clouds
9:51 AM 82.0 °F 87.4 °F 73.0 °F 74% 29.89 in 10.0 mi SSE 19.6 mph 24.2 mph N/A   Scattered Clouds
10:51 AM 84.9 °F 90.7 °F 72.0 °F 65% 29.89 in 10.0 mi South 17.3 mph 25.3 mph N/A   Scattered Clouds
11:51 AM 88.0 °F 95.6 °F 73.0 °F 61% 29.88 in 10.0 mi SSE 18.4 mph 25.3 mph N/A   Scattered Clouds
12:51 PM 90.0 °F 99.0 °F 73.9 °F 59% 29.86 in 10.0 mi SSE 16.1 mph 24.2 mph N/A   Scattered Clouds
1:51 PM 90.0 °F 100.2 °F 75.0 °F 61% 29.84 in 10.0 mi SSE 16.1 mph 28.8 mph N/A   Scattered Clouds
2:51 PM 89.1 °F 99.1 °F 75.0 °F 63% 29.82 in 10.0 mi SSE 20.7 mph 26.5 mph N/A   Scattered Clouds
3:51 PM 89.1 °F 98.0 °F 73.9 °F 61% 29.81 in 10.0 mi SE 21.9 mph 29.9 mph N/A   Partly Cloudy
4:51 PM 84.9 °F 92.1 °F 73.9 °F 69% 29.80 in 10.0 mi SSE 23.0 mph 31.1 mph N/A   Scattered Clouds
5:51 PM 84.0 °F 91.2 °F 73.9 °F 72% 29.80 in 10.0 mi SE 21.9 mph 29.9 mph N/A   Partly Cloudy
6:51 PM 84.0 °F 90.2 °F 73.0 °F 69% 29.80 in 10.0 mi SSE 21.9 mph - N/A   Partly Cloudy
7:51 PM 81.0 °F 85.8 °F 73.0 °F 77% 29.80 in 10.0 mi SSE 20.7 mph 28.8 mph N/A   Partly Cloudy
8:51 PM 80.1 °F 84.2 °F 73.0 °F 79% 29.81 in 10.0 mi SSE 17.3 mph 25.3 mph N/A   Partly Cloudy
9:51 PM 79.0 °F - 73.0 °F 82% 29.83 in 10.0 mi SSE 17.3 mph 25.3 mph N/A   Partly Cloudy
10:51 PM 78.1 °F - 73.9 °F 87% 29.84 in 10.0 mi SSE 15.0 mph 23.0 mph N/A   Partly Cloudy
11:51 PM 78.1 °F - 73.9 °F 87% 29.88 in 10.0 mi SSE 15.0 mph - N/A   Partly Cloudy